Location: Clayton (historical)
(34.0300°N, 118.0259°W)
Time: 07:49:38
(UTC+00:00)

Uosat 12 SS-18 rocket - Pass Details

Date: 29 October 2020
Orbit: 601 x 1384 km, 64.6° (Epoch: 29 November)

Event Time Altitude Azimuth Distance (km) Brightness Sun altitude
Rises 13:23:42 0° 218° (SW) 3,266 7.5 -10.1°
Reaches altitude 10° 13:26:19 10° 222° (SW) 2,234 6.6 -9.6°
Maximum altitude 13:31:11 55° 301° (WNW) 795 4.3 -8.6°
Drops below altitude 10° 13:35:30 10° 19° (NNE) 1,981 6.8 -7.7°
Sets 13:37:42 0° 24° (NNE) 2,861 7.6 -7.2°
